Tracking 21992 objects as of 28-Nov-2020
HD Live streaming from Space Station
objects crossing your sky now

OV1-21

Track OV1-21 now!
10-day predictions
OV1-21 is classified as:


NORAD ID: 5397
Int'l Code: 1971-067B
Perigee: 782.4 km
Apogee: 899.4 km
Inclination: 87.6 °
Period: 101.6 minutes
Semi major axis: 7211 km
RCS: 2.316 m2 (large)
Launch date: August 7, 1971
Source: United States (US)
Launch site: AIR FORCE WESTERN TEST RANGE (AFWTR)
aabbcc
Your satellite tracking list
Your tracking list is empty




NASA's NSSDC Master Catalog

Two Line Element Set (TLE):
1  5397U 71067B   20333.83091989  .00000041  00000-0  11477-4 0  9992
2  5397  87.6306 255.7567 0081164 209.2359 150.4275 14.17513296547541
Source of the keplerian elements: AFSPC